Regional Weather Roundup
Issued by NWS

Home | Current Version | Previous Version | Graphics & Text | Print | Product List | Glossary On
Versions: 1 2 3 4 5 6 7 8 9 10 11 12 13 14 15 16 17 18 19 20 21 22 23 24 25 26 27 28 29 30 31 32 33 34 35 36 37 38 39 40 41 42 43 44 45 46 47 48 49 50
000
ASUS44 KMEG 310600
RWRTN
TENNESSEE HOURLY STATE WEATHER ROUNDUP
NATIONAL WEATHER SERVICE MEMPHIS TN
100 AM CDT SUN JUL 31 2016

TNZ002-004-019-021-049-052-054-088>092-310700-
WEST TENNESSEE

CITY           SKY/WX    TMP DP  RH WIND       PRES   REMARKS
MEMPHIS INTL   CLOUDY    80  74  81 W7        29.98R
NWS MEMPHIS      N/A     76 N/A N/A MISG        N/A
JACKSON        PTCLDY    74  74 100 CALM      29.99S FOG
DYERSBURG      CLOUDY   N/A N/A N/A MISG        N/A
UNION CITY     CLEAR     73  73 100 CALM      29.98S
PARIS          PTCLDY    72  70  94 CALM      30.00F
$$

TNZ008-025-027-028-033-062-065-066-310700-
NORTH MIDDLE TENNESSEE

CITY           SKY/WX    TMP DP  RH WIND       PRES   REMARKS
NASHVILLE      MOCLDY    77  71  82 CALM      30.00F
CLARKSVILLE    PTCLDY    73  71  93 CALM      30.00S FOG
COOKEVILLE     CLEAR     72  72 100 CALM      30.03F
CROSSVILLE     CLEAR     70  69  97 CALM      30.09R FOG
$$

TNZ061-075-076-078-094-096-097-310700-
SOUTH MIDDLE TENNESSEE

CITY           SKY/WX    TMP DP  RH WIND       PRES   REMARKS
TULLAHOMA      CLEAR     72  68  88 CALM      30.05F
WINCHESTER     CLEAR     72  72 100 CALM      30.04F
COLUMBIA       CLEAR    N/A N/A N/A CALM      30.00F
SHELBYVILLE    CLEAR     75  73  94 CALM      30.03F
$$

TNZ017-018-042-046-047-310700-
NORTHEAST TENNESSEE

CITY           SKY/WX    TMP DP  RH WIND       PRES   REMARKS
TRI CITIES     CLOUDY    72  70  93 CALM      30.06S
$$

TNZ012-013-036-069-073-074-310700-
CENTRAL EAST TENNESSEE

CITY           SKY/WX    TMP DP  RH WIND       PRES   REMARKS
KNOXVILLE      PTCLDY    75  71  87 SW5       30.02
OAK RIDGE      CLOUDY    76  71  85 CALM      30.04S
GATLINBURG     CLEAR     73  68  83 CALM      30.03S
$$

TNZ083-085-099-310700-
SOUTHEAST TENNESSEE

CITY           SKY/WX    TMP DP  RH WIND       PRES   REMARKS
CHATTANOOGA    PTCLDY    76  70  82 CALM      30.03S
$$

SKY/WX REPORTED AS FAIR MEANS FEW OR NO CLOUDS BELOW
12 THOUSAND FEET.





USA.gov is the U.S. government's official web portal to all federal, state and local government web resources and services.